When you browse on this site, cookies collect data to enhance your experience and personalize the content and advertising you see.
Visit our Privacy Policy to learn more. By continuing to use the site, you agree to this use of cookies and data.
  • In United Kingdom
  • List of Countries
  • For 7 days
  • Water Temperature
  • Weather Map
  • Weather Widgets
  • user-avatar
    Login

    Hourly Weather Adelaide

    Today, 16 December, Monday

    Time Temperature Precipitation Wind Pressure Humidity
    00:00 +21°C° 0 mm 1 mps 755 mmHg 36%
    01:00 +21°C° 0 mm 1 mps 755 mmHg 34%
    02:00 +21°C° 0 mm 1 mps 755 mmHg 32%
    03:00 +21°C° 0 mm 1 mps 754 mmHg 33%
    04:00 +22°C° 0 mm 1 mps 755 mmHg 32%
    05:00 +23°C° 0 mm 1 mps 756 mmHg 31%
    06:00 +24°C° 0 mm 1 mps 756 mmHg 31%
    07:00 +26°C° 0 mm 1 mps 756 mmHg 27%
    08:00 +29°C° 0 mm 1 mps 756 mmHg 24%
    09:00 +32°C° 0 mm 1 mps 756 mmHg 21%
    10:00 +33°C° 0 mm 1 mps 757 mmHg 20%
    11:00 +34°C° 0 mm 2 mps 757 mmHg 19%
    12:00 +35°C° 0 mm 3 mps 757 mmHg 17%
    13:00 +35°C° 0 mm 3 mps 756 mmHg 17%
    14:00 +35°C° 0 mm 4 mps 756 mmHg 18%
    15:00 +35°C° 0 mm 3 mps 755 mmHg 18%
    16:00 +34°C° 0 mm 3 mps 756 mmHg 20%
    17:00 +33°C° 0 mm 4 mps 756 mmHg 22%
    18:00 +32°C° 0 mm 4 mps 756 mmHg 24%
    19:00 +29°C° 0 mm 3 mps 756 mmHg 25%
    20:00 +27°C° 0 mm 3 mps 757 mmHg 27%
    21:00 +26°C° 0 mm 3 mps 757 mmHg 28%
    22:00 +25°C° 0 mm 3 mps 757 mmHg 29%
    23:00 +25°C° 0 mm 3 mps 757 mmHg 29%

    Tomorrow, 17 December, Tuesday

    Time Temperature Precipitation Wind Pressure Humidity
    00:00 +25°C° 0 mm 2 mps 757 mmHg 30%
    01:00 +25°C° 0 mm 2 mps 757 mmHg 29%
    02:00 +24°C° 0 mm 2 mps 757 mmHg 29%
    03:00 +24°C° 0 mm 2 mps 757 mmHg 29%
    04:00 +25°C° 0 mm 2 mps 757 mmHg 28%
    05:00 +26°C° 0 mm 1 mps 757 mmHg 28%
    06:00 +26°C° 0 mm 1 mps 758 mmHg 27%
    07:00 +29°C° 0 mm 1 mps 758 mmHg 24%
    08:00 +32°C° 0 mm 1 mps 758 mmHg 22%
    09:00 +35°C° 0 mm 1 mps 758 mmHg 19%
    10:00 +38°C° 0 mm 2 mps 757 mmHg 18%
    11:00 +39°C° 0 mm 2 mps 757 mmHg 16%
    12:00 +40°C° 0 mm 2 mps 757 mmHg 15%
    13:00 +40°C° 0 mm 3 mps 756 mmHg 15%
    14:00 +40°C° 0 mm 3 mps 755 mmHg 15%
    15:00 +40°C° 0 mm 3 mps 755 mmHg 15%
    16:00 +39°C° 0 mm 3 mps 755 mmHg 16%
    17:00 +38°C° 0 mm 4 mps 755 mmHg 16%
    18:00 +37°C° 0 mm 4 mps 755 mmHg 17%
    19:00 +35°C° 0 mm 4 mps 755 mmHg 19%
    20:00 +33°C° 0 mm 4 mps 756 mmHg 22%
    21:00 +32°C° 0 mm 4 mps 756 mmHg 24%
    22:00 +30°C° 0 mm 4 mps 756 mmHg 26%
    23:00 +29°C° 0 mm 3 mps 755 mmHg 29%

    Day after tomorrow, 18 December, Wednesday

    Time Temperature Precipitation Wind Pressure Humidity
    00:00 +29°C° 0 mm 3 mps 755 mmHg 31%
    01:00 +29°C° 0 mm 3 mps 755 mmHg 28%
    02:00 +30°C° 0 mm 4 mps 755 mmHg 26%
    03:00 +30°C° 0 mm 4 mps 755 mmHg 23%
    04:00 +32°C° 0 mm 4 mps 755 mmHg 22%
    05:00 +33°C° 0 mm 4 mps 755 mmHg 21%
    06:00 +33°C° 0 mm 4 mps 756 mmHg 19%
    07:00 +36°C° 0 mm 4 mps 756 mmHg 18%
    08:00 +38°C° 0 mm 4 mps 756 mmHg 16%
    09:00 +41°C° 0 mm 4 mps 756 mmHg 15%
    10:00 +42°C° 0 mm 4 mps 755 mmHg 15%
    11:00 +42°C° 0 mm 3 mps 755 mmHg 15%
    12:00 +43°C° 0 mm 3 mps 754 mmHg 15%
    13:00 +43°C° 0 mm 3 mps 754 mmHg 15%
    14:00 +43°C° 0 mm 3 mps 753 mmHg 14%
    15:00 +43°C° 0 mm 4 mps 753 mmHg 14%
    16:00 +42°C° 0 mm 3 mps 753 mmHg 14%
    17:00 +40°C° 0 mm 3 mps 753 mmHg 15%
    18:00 +39°C° 0 mm 3 mps 753 mmHg 16%
    19:00 +37°C° 0 mm 3 mps 753 mmHg 20%
    20:00 +34°C° 0 mm 2 mps 753 mmHg 23%
    21:00 +31°C° 0 mm 2 mps 754 mmHg 26%
    22:00 +31°C° 0 mm 2 mps 754 mmHg 26%
    23:00 +31°C° 0 mm 2 mps 754 mmHg 26%

    19 December, Thursday

    Time Temperature Precipitation Wind Pressure Humidity
    00:00 +30°C° 0 mm 2 mps 754 mmHg 26%
    01:00 +30°C° 0 mm 2 mps 753 mmHg 26%
    02:00 +30°C° 0 mm 2 mps 753 mmHg 26%
    03:00 +30°C° 0 mm 1 mps 753 mmHg 26%
    04:00 +31°C° 0 mm 1 mps 753 mmHg 25%
    05:00 +32°C° 0 mm 1 mps 753 mmHg 24%
    06:00 +32°C° 0 mm 2 mps 754 mmHg 23%
    07:00 +36°C° 0 mm 2 mps 754 mmHg 20%
    08:00 +38°C° 0 mm 2 mps 754 mmHg 17%
    09:00 +42°C° 0 mm 3 mps 754 mmHg 14%
    10:00 +42°C° 0 mm 3 mps 753 mmHg 14%
    11:00 +43°C° 0 mm 3 mps 753 mmHg 14%
    12:00 +44°C° 0 mm 3 mps 752 mmHg 13%
    13:00 +44°C° 0 mm 3 mps 752 mmHg 13%
    14:00 +44°C° 0 mm 4 mps 751 mmHg 13%
    15:00 +44°C° 0 mm 4 mps 751 mmHg 13%
    16:00 +43°C° 0 mm 3 mps 751 mmHg 13%
    17:00 +41°C° 0 mm 2 mps 751 mmHg 14%
    18:00 +41°C° 0 mm 2 mps 751 mmHg 15%
    19:00 +39°C° 0 mm 2 mps 751 mmHg 17%
    20:00 +37°C° 0 mm 2 mps 751 mmHg 19%
    21:00 +34°C° 0 mm 2 mps 752 mmHg 21%
    22:00 +34°C° 0 mm 2 mps 751 mmHg 21%
    23:00 +34°C° 0 mm 2 mps 751 mmHg 21%

    20 December, Friday

    Time Temperature Precipitation Wind Pressure Humidity
    00:00 +32°C° 0 mm 2 mps 751 mmHg 21%
    01:00 +33°C° 0 mm 3 mps 751 mmHg 21%
    02:00 +33°C° 0 mm 3 mps 750 mmHg 21%
    03:00 +33°C° 0 mm 3 mps 750 mmHg 21%
    04:00 +34°C° 0 mm 4 mps 750 mmHg 22%
    05:00 +35°C° 0 mm 4 mps 751 mmHg 23%
    06:00 +36°C° 0 mm 5 mps 751 mmHg 24%
    07:00 +39°C° 0 mm 6 mps 751 mmHg 23%
    08:00 +40°C° 0 mm 7 mps 751 mmHg 22%
    09:00 +43°C° 0 mm 8 mps 751 mmHg 21%
    10:00 +43°C° 0.1 mm 8 mps 751 mmHg 21%
    11:00 +44°C° 0.1 mm 8 mps 751 mmHg 21%
    12:00 +44°C° 0.1 mm 7 mps 751 mmHg 22%
    13:00 +44°C° 0 mm 7 mps 750 mmHg 22%
    14:00 +44°C° 0 mm 7 mps 750 mmHg 22%
    15:00 +42°C° 0 mm 6 mps 749 mmHg 22%
    16:00 +39°C° 0.2 mm 7 mps 750 mmHg 31%
    17:00 +34°C° 0.2 mm 8 mps 752 mmHg 40%
    18:00 +29°C° 0.2 mm 8 mps 753 mmHg 48%
    19:00 +27°C° 0 mm 7 mps 753 mmHg 54%
    20:00 +24°C° 0 mm 6 mps 754 mmHg 61%
    21:00 +22°C° 0 mm 5 mps 755 mmHg 67%
    22:00 +21°C° 0 mm 5 mps 755 mmHg 67%
    23:00 +21°C° 0 mm 5 mps 755 mmHg 67%

    21 December, Saturday

    Time Temperature Precipitation Wind Pressure Humidity
    00:00 +20°C° 0 mm 5 mps 756 mmHg 67%
    01:00 +19°C° 0 mm 5 mps 756 mmHg 70%
    02:00 +19°C° 0 mm 5 mps 756 mmHg 72%
    03:00 +18°C° 0 mm 4 mps 756 mmHg 75%
    04:00 +18°C° 0 mm 4 mps 757 mmHg 75%
    05:00 +18°C° 0 mm 4 mps 757 mmHg 74%
    06:00 +18°C° 0 mm 4 mps 758 mmHg 74%
    07:00 +19°C° 0 mm 4 mps 758 mmHg 68%
    08:00 +20°C° 0 mm 5 mps 759 mmHg 61%
    09:00 +21°C° 0 mm 5 mps 759 mmHg 55%
    10:00 +23°C° 0 mm 5 mps 759 mmHg 50%
    11:00 +25°C° 0 mm 5 mps 759 mmHg 46%
    12:00 +26°C° 0 mm 5 mps 758 mmHg 41%
    13:00 +24°C° 0 mm 6 mps 758 mmHg 43%
    14:00 +23°C° 0 mm 7 mps 758 mmHg 45%
    15:00 +22°C° 0 mm 8 mps 758 mmHg 46%
    16:00 +21°C° 0 mm 7 mps 759 mmHg 51%
    17:00 +18°C° 0 mm 7 mps 759 mmHg 56%
    18:00 +16°C° 0 mm 6 mps 760 mmHg 61%
    19:00 +16°C° 0.1 mm 6 mps 760 mmHg 63%
    20:00 +15°C° 0.1 mm 5 mps 760 mmHg 65%
    21:00 +15°C° 0.1 mm 4 mps 760 mmHg 67%
    22:00 +15°C° 0.1 mm 4 mps 759 mmHg 69%
    23:00 +15°C° 0.1 mm 5 mps 759 mmHg 71%
    Show more